{"data":{"norad_id":66207,"intl_designator":"2025-244B","name":"STARLINK-35747","alt_names":[],"object_type":"PAYLOAD","status":"ACTIVE","operator":null,"country":"US","launch_date":"2025-10-28","launch_site_code":"AFWTR","launch_vehicle":null,"mission":null,"orbit_class":"UNKNOWN","rcs_meters":null,"size_class":null,"mass_kg":null,"dimensions":null,"purposes":["comms"],"wikipedia_slug":null,"has_3d_model":false,"image_url":null,"decayed_at":null,"tle_current":{"epoch":"2026-05-24T23:03:04.416192Z","epoch_age_seconds":78236,"freshness":"FRESH","line1":"1 66207U 25244B   26144.96046778  .00029616  00000+0  88388-3 0  9993","line2":"2 66207  53.1594 235.8250 0001263  96.7402 263.3744 15.34411969 33339","mean_motion":15.34411969,"eccentricity":0.0001263,"inclination_deg":53.1594,"raan_deg":235.825,"arg_perigee_deg":96.7402,"mean_anomaly_deg":263.3744,"bstar":0.00088388,"rev_number":3333,"period_min":93.847026032941,"perigee_km":461.80367241868,"apogee_km":463.53165967732,"semimajor_km":6840.804666048,"source":"CELESTRAK","updated_at":"2026-05-25T13:38:21.126266Z"}}}